Погода в Шишином

Россия / Кемеровская область (Кузбасс)     55°21′51″N   85°13′34″E
темп.,
°C
ветер,
м/с
пор.,
м/с
влажн.,
%
обл.,
%
осадки,
мм/ч
давл.,
гПа
погр.,
м
20 апреля, вт
вт2001:00−9сз368560 0.0 1025365
04:00−10зсз36865 0.0 1025291
07:00−10зсз478811 0.0 1026600
10:00−8зсз5673100 0.1 10271203
13:00−6зсз5668100 0.1 10261361
16:00−4зсз5760100 0.1 10261647
19:00−4сз366711 0.1 1026591
22:00−7ююз11835 0.0 102610
21 апреля, ср
ср2101:00−6юз3582100 0.0 102584
04:00−6ююз4777100 0.0 1024233
07:00−5ююз41072100 0.0 1024429
10:00−3ююз5759100 0.0 10231292
13:00−1ююз4560100 0.0 10231351
16:000ю2358100 0.1 10231139
19:00−1в1271100 0.1 1025623
22:00−2всв2282100 0.0 102744
22 апреля, чт
чт2201:00−3св3781100 0.0 1029237
04:00−4св498315 0.0 1031266
07:00−4ссв410825 0.0 1034312
10:00−1св68705 0.0 1037891
13:00+1св6852100 0.1 10381733
16:00+2св6753100 0.1 10391611
19:00+1ссв586993 0.2 1041912
22:00−1ссв510845 0.0 1043367
23 апреля, пт
пт2301:00−2ссв510895 0.0 1044343
04:00−2ссв5119211 0.0 1044359
07:00−2св5109084 0.0 1044417
10:00+1св79695 0.0 1044754
13:00+4св785378 0.0 10431534
16:00+5всв7851100 0.1 10421817
19:00+4св59665 0.1 1041414
22:000ссв512845 0.0 1042247
24 апреля, сб
сб2401:00−1ссв512875 0.0 1040297
04:00−1ссв51189100 0.0 1038293
07:000ссв61285100 0.0 1037394
10:00+2ссв7107196 0.0 1035612
13:00+5ссв7863100 0.0 10341145
16:00+6ссв6866100 0.1 10331329
19:00+4ссв5882100 0.4 1033792
22:00+2ссв4898100 0.0 1033453